Terminal Aerodrome Forecast
Issued by NWS Sioux Falls, SD

Home | Current Version | Previous Version | Text Only | Print | Product List | Glossary On
Versions: 1 2 3 4 5 6 7 8 9 10 11 12 13 14 15 16 17 18 19 20 21 22 23 24 25 26 27 28 29 30 31 32 33 34 35 36 37 38
000
FTUS43 KFSD 060520
TAFSUX
TAF
KSUX 060520Z 0606/0706 12010KT P6SM BKN120
     FM061000 15013KT P6SM -SHRA OVC035
     FM061400 15014G20KT P6SM -SHRA OVC015
     FM061800 16018G23KT P6SM -SHRA BKN020
     FM070000 15013G19KT P6SM -SHRA SCT025 OVC050=

USA.gov is the U.S. government's official web portal to all federal, state and local government web resources and services.